Overview Statistics Trail Chart Weather Telemetry Raw packets
 

This is the latest recevied weather packets stored in our database for station/object K0FJ-1. If no packets are shown the sender has not sent any weather packets the latest 10 day(s).

<< 19 20 21 22 23 24 25 >>
Time Temp. Humidity Pressure Rain* Wind** Luminosity Snow
1788545403 32.78° C 37% 1014.2 hPa 0 mm - - -
1788545103 32.78° C 36% 1014.2 hPa 0 mm - - -
1788544803 33.33° C 36% 1014.1 hPa 0 mm - - -
1788544503 33.33° C 35% 1014 hPa 0 mm - - -
1788544203 33.33° C 35% 1014 hPa 0 mm - - -
1788543903 33.33° C 35% 1014 hPa 0 mm - - -
1788543603 33.33° C 35% 1014 hPa 0 mm - - -
1788543303 33.33° C 36% 1014 hPa 0 mm - - -
1788543003 33.33° C 35% 1014 hPa 0 mm - - -
1788542703 33.33° C 36% 1014.1 hPa 0 mm - - -
1788542403 33.33° C 38% 1014 hPa 0 mm - - -
1788542103 32.78° C 39% 1014.1 hPa 0 mm - - -
1788541803 32.22° C 43% 1014 hPa 0 mm - - -
1788541503 32.22° C 42% 1014 hPa 0 mm - - -
1788541203 31.67° C 43% 1014 hPa 0 mm - - -
1788540903 31.67° C 44% 1014.1 hPa 0 mm - - -
1788540603 31.11° C 45% 1014.1 hPa 0 mm - - -
1788540303 31.11° C 45% 1014 hPa 0 mm - - -
1788540003 31.11° C 45% 1014.2 hPa 0 mm - - -
1788539703 31.11° C 44% 1014.2 hPa 0 mm - - -
1788539403 31.11° C 45% 1014.2 hPa 0 mm - - -
1788539103 30.56° C 45% 1014.3 hPa 0 mm - - -
1788538803 30.56° C 46% 1014.3 hPa 0 mm - - -
1788538503 30° C 46% 1014.2 hPa 0 mm - - -
1788538203 30° C 48% 1014.2 hPa 0 mm - - -

* Rain latest hour (hover to see other rain measurements)
** Current wind speed in m/s (hover to see current wind gust speed)